[[{"header":{"parameterUnit":"m.s-1","parameterCategory":1,"la1":30.2991,"la2":30.254,"lo1":-89.0895,"lo2":-89.0444,"dy":0.0017,"dx":0.0017,"nx":28,"ny":28,"refTime":"2024-12-07T03:00:00:Z","depth":0,"parameterNumber":2,"parameterNumberName":"U-component_of_WINDS"},"data":[0,0,0,0,0,0,0,0,0,0,0,0,0,0,0,0,0,0,0,0,0,0,0,0,0,0,0,0,0,0,0,0,0,0,0,0,0,0,0,0,0,0,0,0,0,0,0,0,0,0,0,0,0,0,0,0,0,0,-3.3891,-3.3891,0,-3.3934,-3.3934,-3.3935,-3.3838,-3.3835,-3.3831,-3.3828,-3.3872,-3.3876,-3.388,0,0,0,0,0,0,0,0,0,0,0,0,0,-3.3724,-3.3728,-3.3891,-3.3891,-3.3892,-3.3934,-3.3934,-3.3935,-3.3838,-3.3834,-3.3831,-3.3827,-3.3871,-3.3876,-3.3881,0,0,0,0,0,0,0,0,0,0,0,0,0,-3.3785,-3.3729,-3.3891,-3.3849,-3.3845,-3.3934,-3.3934,-3.3935,-3.3839,-3.3834,-3.383,-3.3825,-3.3869,-3.3875,-3.3881,-3.4012,0,0,-3.39,-3.3903,0,0,0,0,0,0,0,0,-3.3782,-3.3791,-3.3854,-3.3852,-3.3848,-3.3876,-3.3891,-3.3961,-3.384,-3.3841,-3.3828,-3.3823,-3.3877,-3.3882,-3.3901,-3.4014,-3.4016,-3.39,-3.3904,-3.3907,-3.3908,0,0,0,0,0,0,0,-3.3778,-3.3789,-3.3908,-3.3855,-3.3852,-3.3827,-3.3831,-3.3904,-3.3885,-3.3841,-3.3834,-3.384,-3.3875,-3.3895,-3.3901,-3.4017,-3.39,-3.3906,-3.3909,-3.3912,-3.4238,-3.4243,0,0,0,0,0,0,-3.3779,-3.3786,-3.3906,-3.3909,-3.3803,-3.3834,-3.3838,-3.3872,-3.3884,-3.3881,-3.3844,-3.3836,-3.3887,-3.3894,-3.3902,-3.4054,-3.3907,-3.3912,-3.3916,-3.4233,-3.4239,-3.4245,0,0,0,0,0,0,-3.3776,-3.3791,-3.3905,-3.3846,-3.3858,-3.3842,-3.388,-3.3875,-3.3895,-3.3886,-3.3882,-3.3869,-3.3883,-3.3893,-3.3985,-3.4055,-3.3915,-3.3921,-3.4227,-3.4235,-3.4242,-3.4362,0,0,0,0,0,0,-3.3771,-3.379,-3.384,-3.3848,-3.3862,-3.3988,-3.3885,-3.3879,-3.3906,-3.3895,-3.3908,-3.3906,-3.3881,-3.3977,-3.3991,-3.4061,-3.3925,-3.4221,-3.4231,-3.4239,-3.4351,-3.4372,-3.439,0,0,0,0,0,-3.3766,-3.3872,-3.3843,-3.3858,-3.3924,-3.3992,-3.4,-3.3969,-3.3912,-3.3961,-3.3956,-3.3906,-3.4045,-3.3987,-3.4002,-3.4075,-3.4216,-3.4228,-3.4239,-3.4343,-3.4368,-3.439,0,0,0,0,0,0,-3.3873,-3.3873,-3.384,-3.3952,-3.3973,-3.3975,-3.4037,-3.3997,-3.4034,-3.4023,-3.3982,-3.3986,-3.4085,-3.4089,-3.4024,-3.4201,-3.4121,-3.4136,-3.4195,-3.4219,-3.4238,-3.4234,-3.3931,0,0,0,0,0,-3.391,-3.3966,-3.3962,-3.4061,-3.4073,-3.4054,-3.4082,-3.4056,-3.4076,-3.4084,-3.4085,-3.4106,-3.4154,-3.4187,-3.4231,-3.4352,-3.4352,-3.4409,-3.4429,-3.4445,-3.4458,-3.452,-3.4545,-3.4282,-3.4281,-3.4281,0,0,-3.3987,-3.3993,-3.4031,-3.4083,-3.4096,-3.4154,-3.4062,-3.4127,-3.4169,-3.4094,-3.418,-3.4182,-3.4202,-3.4309,-3.4356,-3.4315,-3.4531,-3.4459,-3.4472,-3.4476,-3.4534,-3.4559,-3.4581,-3.4289,-3.4288,-3.4287,0,0,-3.4155,-3.4167,-3.425,-3.4264,-3.4285,-3.4271,-3.4291,-3.43,-3.4298,-3.4384,-3.4328,-3.4378,-3.4462,-3.4479,-3.4498,-3.4673,-3.4627,-3.4688,-3.4789,-3.485,-3.4871,-3.4889,-3.4949,-3.4972,-3.4701,-3.4702,-3.4702,0,-3.4248,-3.4333,-3.4298,-3.4366,-3.439,-3.4325,-3.4408,-3.4424,-3.4459,-3.4477,-3.4431,-3.4535,-3.4544,-3.4652,-3.4695,-3.4714,-3.4734,-3.4686,-3.4871,-3.4889,-3.4905,-3.4962,-3.4985,-3.4709,-3.4708,-3.4707,-3.4707,0,-3.4444,-3.4504,-3.4569,-3.4603,-3.4635,-3.4711,-3.4686,-3.4723,-3.4694,-3.4685,-3.4772,-3.4781,-3.4825,-3.4849,-3.4822,-3.4954,-3.4928,-3.4878,-3.4796,-3.4938,-3.4991,-3.5012,-3.4719,-3.4716,-3.4714,-3.4713,0,0,-3.4681,-3.4695,-3.4719,-3.4733,-3.4751,-3.4796,-3.4869,-3.4911,-3.4942,-3.4969,-3.5027,-3.51,-3.5053,-3.5075,-3.505,-3.5104,-3.5239,-3.5046,-3.5046,-3.508,-3.5382,-3.5418,-3.5444,-3.521,-3.5214,-3.5217,-3.538,0,-3.4846,-3.4971,-3.4941,-3.5064,-3.5118,-3.5056,-3.5119,-3.5137,-3.5131,-3.5175,-3.5167,-3.5219,-3.5154,-3.5167,-3.5218,-3.5212,-3.5299,-3.52,-3.5263,-3.5265,-3.5257,-3.5472,-3.5511,-3.5664,-3.54,-3.5404,-3.5406,0,-3.5056,-3.5089,-3.5217,-3.5225,-3.5246,-3.5303,-3.5339,-3.5383,-3.5402,-3.5393,-3.5418,-3.5381,-3.5452,-3.5371,-3.5467,-3.54,-3.5424,-3.5425,-3.5431,-3.5434,-3.5343,-3.5479,-3.5712,-3.5735,-3.5439,-3.5436,-3.5434,0,-3.5213,-3.529,-3.5376,-3.539,-3.5402,-3.5443,-3.545,-3.5464,-3.5491,-3.5523,-3.554,-3.558,-3.5601,-3.5633,-3.5607,-3.5551,-3.5707,-3.5625,-3.5701,-3.5701,-3.5735,-3.5733,-3.5973,-3.5754,-3.5754,-3.5754,-3.5753,0,-3.5399,-3.548,-3.5447,-3.55,-3.5587,-3.5553,-3.564,-3.564,-3.5653,-3.5704,-3.5654,-3.5703,-3.5667,-3.5713,-3.5694,-3.5775,-3.5786,-3.578,-3.5774,-3.5783,-3.5784,-3.5797,-3.5785,-3.576,-3.5758,-3.5757,-3.5756,0,-3.5589,-3.5571,-3.566,-3.5664,-3.5667,-3.5731,-3.5734,-3.5782,-3.5772,-3.5837,-3.5851,-3.5835,-3.5886,-3.5864,-3.5919,-3.5905,-3.6009,-3.599,-3.6003,-3.5997,-3.6074,-3.6066,-3.6329,-3.6361,-3.6124,-3.6127,-3.6128,0,-3.5708,-3.5769,-3.5779,-3.5809,-3.5819,-3.587,-3.5897,-3.5865,-3.5895,-3.592,-3.5965,-3.6012,-3.6048,-3.6132,-3.6125,-3.6166,-3.6146,-3.6235,-3.6152,-3.6159,-3.6144,-3.614,-3.6145,-3.6252,-3.6254,-3.6257,-3.6258,0,-3.5921,-3.5909,-3.595,-3.5988,-3.6022,-3.6051,-3.6075,-3.6103,-3.6072,-3.6108,-3.616,-3.6188,-3.6242,-3.6289,-3.6325,-3.6331,-3.629,-3.6285,-3.6304,-3.6314,-3.6318,-3.6314,-3.6047,-3.6279,-3.6277,-3.6275,-3.6274,-3.6273,-3.6078,-3.6127,-3.6142,-3.6189,-3.6204,-3.6228,-3.6273,-3.6268,-3.6311,-3.6352,-3.6331,-3.6391,-3.6406,-3.645,-3.6462,-3.6508,-3.6472,-3.6501,-3.6508,-3.6515,-3.6524,-3.6313,-3.6515,-3.6514,-3.6513,-3.6513,-3.6513,0,-3.6286,-3.6292,-3.6336,-3.6371,-3.6408,-3.6366,-3.639,-3.6424,-3.6477,-3.6495,-3.6531,-3.6589,-3.6634,-3.6631,-3.6672,-3.6709,-3.669,-3.672,-3.6716,-3.6718,-3.6554,-3.6532,-3.6734,-3.6734,-3.6734,-3.6734,-3.6734,-3.6734,-3.6398,-3.6479,-3.6469,-3.6557,-3.6562,-3.662,-3.6637,-3.6658,-3.6672,-3.674,-3.6777,-3.6774,-3.6783,-3.6824,-3.6863,-3.6861,-3.6877,-3.6914,-3.6904,-3.6751,-3.6729,-3.6708,-3.6687,-3.6918,-3.6919,-3.7063,-3.7065,-3.7066]},{"header":{"parameterUnit":"m.s-1","parameterCategory":1,"la1":30.2991,"la2":30.254,"lo1":-89.0895,"lo2":-89.0444,"dy":0.0017,"dx":0.0017,"nx":28,"ny":28,"refTime":"2024-12-07T03:00:00:Z","depth":0,"parameterNumber":3,"parameterNumberName":"V-component_of_WINDS"},"data":[0,0,0,0,0,0,0,0,0,0,0,0,0,0,0,0,0,0,0,0,0,0,0,0,0,0,0,0,0,0,0,0,0,0,0,0,0,0,0,0,0,0,0,0,0,0,0,0,0,0,0,0,0,0,0,0,0,0,-0.706,-0.7059,0,-0.7026,-0.7026,-0.7026,-0.7031,-0.7031,-0.7032,-0.7033,-0.6997,-0.6995,-0.6994,0,0,0,0,0,0,0,0,0,0,0,0,0,-0.7125,-0.7123,-0.706,-0.7059,-0.7059,-0.7026,-0.7026,-0.7025,-0.7031,-0.7032,-0.7032,-0.7033,-0.6997,-0.6995,-0.6994,0,0,0,0,0,0,0,0,0,0,0,0,0,-0.7094,-0.7123,-0.706,-0.7058,-0.7057,-0.7026,-0.7026,-0.7025,-0.7031,-0.7032,-0.7032,-0.7033,-0.6998,-0.6996,-0.6993,-0.6962,0,0,-0.6986,-0.6985,0,0,0,0,0,0,0,0,-0.7096,-0.7092,-0.7058,-0.7058,-0.7057,-0.7034,-0.7036,-0.7004,-0.703,-0.7041,-0.7033,-0.7034,-0.7008,-0.7005,-0.6997,-0.696,-0.6959,-0.6986,-0.6985,-0.6984,-0.6983,0,0,0,0,0,0,0,-0.7098,-0.7093,-0.7046,-0.7058,-0.7057,-0.7057,-0.7054,-0.703,-0.702,-0.704,-0.704,-0.7036,-0.7008,-0.6999,-0.6996,-0.6958,-0.6986,-0.6984,-0.6983,-0.6982,-0.6891,-0.689,0,0,0,0,0,0,-0.7101,-0.7095,-0.7047,-0.7045,-0.7079,-0.7055,-0.7052,-0.704,-0.702,-0.7018,-0.7036,-0.7037,-0.7002,-0.6999,-0.6995,-0.6954,-0.6984,-0.6982,-0.6981,-0.6892,-0.6891,-0.689,0,0,0,0,0,0,-0.7103,-0.7097,-0.7049,-0.707,-0.7064,-0.7053,-0.7041,-0.7039,-0.703,-0.7017,-0.7015,-0.7028,-0.7003,-0.6998,-0.697,-0.6953,-0.6981,-0.6979,-0.6894,-0.6892,-0.689,-0.6875,0,0,0,0,0,0,-0.7104,-0.7097,-0.7086,-0.707,-0.7063,-0.7025,-0.704,-0.7038,-0.7027,-0.7028,-0.701,-0.7008,-0.7003,-0.6973,-0.6967,-0.6951,-0.6977,-0.6895,-0.6893,-0.6891,-0.6877,-0.6873,-0.687,0,0,0,0,0,-0.7107,-0.7084,-0.7086,-0.708,-0.7049,-0.7024,-0.702,-0.7016,-0.7025,-0.7013,-0.7004,-0.7008,-0.6957,-0.697,-0.6964,-0.6946,-0.6896,-0.6893,-0.6891,-0.6878,-0.6874,-0.687,0,0,0,0,0,0,-0.7098,-0.7081,-0.7084,-0.7055,-0.7041,-0.7025,-0.701,-0.7012,-0.6995,-0.6996,-0.6992,-0.6987,-0.6958,-0.695,-0.6965,-0.6913,-0.6927,-0.6923,-0.692,-0.6915,-0.6912,-0.6914,-0.6975,0,0,0,0,0,-0.7093,-0.7075,-0.7061,-0.7037,-0.703,-0.7021,-0.701,-0.7008,-0.6993,-0.6987,-0.6976,-0.6961,-0.6941,-0.6928,-0.6909,-0.6876,-0.6871,-0.6861,-0.6857,-0.6855,-0.6851,-0.683,-0.6824,-0.6882,-0.6882,-0.6882,0,0,-0.7082,-0.707,-0.7059,-0.7035,-0.7024,-0.7004,-0.7016,-0.6995,-0.698,-0.6984,-0.6956,-0.6947,-0.693,-0.6898,-0.6884,-0.689,-0.6834,-0.6852,-0.6849,-0.6847,-0.6827,-0.6821,-0.6816,-0.688,-0.6881,-0.6881,0,0,-0.7051,-0.7042,-0.7019,-0.7007,-0.6991,-0.6985,-0.6979,-0.6963,-0.6957,-0.6929,-0.6931,-0.6912,-0.6879,-0.6865,-0.6854,-0.6816,-0.6818,-0.681,-0.6791,-0.677,-0.6766,-0.6762,-0.6745,-0.674,-0.6807,-0.6807,-0.6807,0,-0.7039,-0.701,-0.7007,-0.6985,-0.6973,-0.6976,-0.6952,-0.6941,-0.6918,-0.6909,-0.6917,-0.6873,-0.6862,-0.6826,-0.6816,-0.6808,-0.68,-0.6811,-0.6767,-0.6763,-0.6759,-0.6743,-0.6737,-0.6806,-0.6806,-0.6806,-0.6806,0,-0.6994,-0.6974,-0.6958,-0.6935,-0.6922,-0.6899,-0.6891,-0.6878,-0.6877,-0.6869,-0.6839,-0.6826,-0.6803,-0.6794,-0.6794,-0.6757,-0.6761,-0.6768,-0.6781,-0.6752,-0.6737,-0.6731,-0.6804,-0.6805,-0.6805,-0.6805,0,0,-0.6957,-0.6933,-0.6926,-0.6915,-0.6896,-0.6879,-0.6856,-0.6834,-0.6821,-0.6805,-0.6783,-0.6754,-0.6759,-0.6747,-0.6744,-0.6727,-0.6693,-0.6735,-0.6734,-0.6725,-0.6649,-0.6642,-0.6635,-0.6695,-0.6694,-0.6693,-0.6649,0,-0.6922,-0.6881,-0.6877,-0.6839,-0.6818,-0.6821,-0.68,-0.6785,-0.6777,-0.6757,-0.6749,-0.6727,-0.6737,-0.6729,-0.6712,-0.6701,-0.6678,-0.6705,-0.6673,-0.6671,-0.6674,-0.6628,-0.6621,-0.658,-0.6644,-0.6643,-0.6642,0,-0.6876,-0.6858,-0.6818,-0.6799,-0.6791,-0.6772,-0.675,-0.6732,-0.6714,-0.671,-0.6695,-0.6694,-0.6667,-0.6683,-0.6645,-0.6663,-0.665,-0.6643,-0.6641,-0.6636,-0.6653,-0.6619,-0.6568,-0.656,-0.6633,-0.6634,-0.6635,0,-0.6849,-0.6815,-0.6786,-0.6777,-0.6755,-0.6742,-0.6732,-0.6715,-0.6701,-0.6682,-0.6672,-0.665,-0.6637,-0.6619,-0.6611,-0.6624,-0.6573,-0.6589,-0.6566,-0.6566,-0.6553,-0.6554,-0.6496,-0.6549,-0.6549,-0.6549,-0.655,0,-0.6809,-0.6784,-0.6773,-0.6755,-0.6726,-0.6722,-0.6693,-0.6683,-0.6668,-0.6647,-0.6648,-0.6628,-0.662,-0.6598,-0.6592,-0.656,-0.6555,-0.6549,-0.6547,-0.6547,-0.6547,-0.6537,-0.6538,-0.6548,-0.6548,-0.6548,-0.6549,0,-0.6773,-0.6766,-0.6734,-0.6716,-0.671,-0.6689,-0.6673,-0.6655,-0.6647,-0.662,-0.6613,-0.6601,-0.6575,-0.6566,-0.6535,-0.653,-0.6491,-0.6494,-0.6497,-0.6496,-0.6473,-0.6474,-0.6404,-0.6394,-0.6456,-0.6456,-0.6455,0,-0.6747,-0.6728,-0.6707,-0.6693,-0.6683,-0.666,-0.6646,-0.664,-0.6625,-0.6602,-0.6585,-0.6559,-0.6538,-0.6496,-0.6483,-0.6458,-0.6458,-0.6435,-0.6454,-0.6454,-0.6454,-0.6454,-0.6451,-0.6431,-0.6431,-0.643,-0.643,0,-0.6701,-0.6697,-0.6677,-0.6654,-0.6637,-0.6618,-0.6601,-0.6589,-0.658,-0.6562,-0.6536,-0.6519,-0.6487,-0.646,-0.6434,-0.6423,-0.6423,-0.6424,-0.6417,-0.6415,-0.6417,-0.6413,-0.6485,-0.6425,-0.6426,-0.6426,-0.6426,-0.6426,-0.6667,-0.6649,-0.6631,-0.6607,-0.6593,-0.6576,-0.6557,-0.6546,-0.6524,-0.6497,-0.6495,-0.6465,-0.6445,-0.6411,-0.6398,-0.6374,-0.638,-0.637,-0.6367,-0.6364,-0.6361,-0.6423,-0.6369,-0.6369,-0.637,-0.637,-0.637,0,-0.6618,-0.6606,-0.6584,-0.6559,-0.654,-0.6544,-0.6524,-0.6506,-0.6481,-0.6463,-0.6441,-0.6409,-0.6383,-0.6368,-0.6341,-0.6324,-0.6323,-0.6316,-0.6316,-0.6313,-0.6359,-0.6366,-0.6317,-0.6317,-0.6317,-0.6317,-0.6317,-0.6317,-0.659,-0.6558,-0.6552,-0.6512,-0.6501,-0.6472,-0.646,-0.6443,-0.6428,-0.6392,-0.637,-0.6361,-0.6343,-0.6314,-0.6289,-0.6285,-0.6274,-0.6266,-0.6262,-0.6305,-0.631,-0.6315,-0.6322,-0.6265,-0.6264,-0.6218,-0.6218,-0.6217]}]]